When you browse on this site, cookies collect data to enhance your experience and personalize the content and advertising you see.
Visit our Privacy Policy to learn more. By continuing to use the site, you agree to this use of cookies and data.
  • Em Portugal
  • Lista de países
  • Para 7 dias
  • Temperatura da água
  • Mapa do tempo
  • Widgets de tempo
  • user-avatar
    Iniciar Sessão

    Previsão horária em Sergeevka

    Hoje, 7 Junho, Domingo

    Tempo Temperatura Precipitação Vento Pressão Humidade
    00:00 +15°C° 0.4 mm 2 m/s 747 mmHg 97%
    01:00 +15°C° 0.4 mm 1 m/s 747 mmHg 97%
    02:00 +15°C° 0.4 mm 1 m/s 747 mmHg 97%
    03:00 +15°C° 0 mm 1 m/s 747 mmHg 97%
    04:00 +16°C° 0 mm 1 m/s 747 mmHg 97%
    05:00 +16°C° 0 mm 1 m/s 748 mmHg 97%
    06:00 +18°C° 0 mm 1 m/s 748 mmHg 94%
    07:00 +19°C° 0 mm 1 m/s 748 mmHg 91%
    08:00 +20°C° 0 mm 1 m/s 749 mmHg 89%
    09:00 +22°C° 0 mm 1 m/s 749 mmHg 83%
    10:00 +23°C° 0 mm 1 m/s 749 mmHg 77%
    11:00 +24°C° 0 mm 2 m/s 749 mmHg 72%
    12:00 +25°C° 0 mm 2 m/s 750 mmHg 66%
    13:00 +26°C° 0 mm 1 m/s 750 mmHg 60%
    14:00 +27°C° 0 mm 1 m/s 750 mmHg 54%
    15:00 +27°C° 0 mm 1 m/s 750 mmHg 57%
    16:00 +26°C° 0 mm 1 m/s 750 mmHg 59%
    17:00 +26°C° 0 mm 2 m/s 749 mmHg 62%
    18:00 +24°C° 0 mm 2 m/s 750 mmHg 71%
    19:00 +22°C° 0 mm 1 m/s 750 mmHg 80%
    20:00 +21°C° 0 mm 1 m/s 750 mmHg 89%
    21:00 +20°C° 0 mm 1 m/s 750 mmHg 91%
    22:00 +19°C° 0 mm 1 m/s 750 mmHg 93%
    23:00 +18°C° 0 mm 1 m/s 750 mmHg 95%

    Amanhã, 8 Junho, Segunda-feira

    Tempo Temperatura Precipitação Vento Pressão Humidade
    00:00 +18°C° 0 mm 1 m/s 750 mmHg 95%
    01:00 +18°C° 0 mm 1 m/s 750 mmHg 96%
    02:00 +18°C° 0 mm 1 m/s 750 mmHg 96%
    03:00 +18°C° 0 mm 1 m/s 750 mmHg 95%
    04:00 +19°C° 0 mm 1 m/s 750 mmHg 94%
    05:00 +19°C° 0 mm 1 m/s 750 mmHg 94%
    06:00 +21°C° 0 mm 1 m/s 750 mmHg 87%
    07:00 +23°C° 0 mm 1 m/s 750 mmHg 79%
    08:00 +25°C° 0 mm 2 m/s 751 mmHg 72%
    09:00 +26°C° 0 mm 2 m/s 751 mmHg 66%
    10:00 +27°C° 0 mm 2 m/s 751 mmHg 60%
    11:00 +28°C° 0 mm 2 m/s 751 mmHg 54%
    12:00 +29°C° 0 mm 2 m/s 750 mmHg 53%
    13:00 +29°C° 0 mm 2 m/s 750 mmHg 51%
    14:00 +30°C° 0 mm 2 m/s 750 mmHg 50%
    15:00 +29°C° 0 mm 2 m/s 750 mmHg 55%
    16:00 +29°C° 0 mm 1 m/s 750 mmHg 59%
    17:00 +29°C° 0 mm 1 m/s 750 mmHg 64%
    18:00 +27°C° 0.1 mm 2 m/s 750 mmHg 70%
    19:00 +25°C° 0.1 mm 2 m/s 750 mmHg 77%
    20:00 +23°C° 0.1 mm 2 m/s 750 mmHg 84%
    21:00 +21°C° 0.1 mm 2 m/s 750 mmHg 88%
    22:00 +20°C° 0.1 mm 2 m/s 750 mmHg 91%
    23:00 +20°C° 0.1 mm 2 m/s 750 mmHg 95%

    Depois de amanhã, 9 Junho, Terça-feira

    Tempo Temperatura Precipitação Vento Pressão Humidade
    00:00 +19°C° 0.6 mm 2 m/s 750 mmHg 96%
    01:00 +19°C° 0.6 mm 2 m/s 750 mmHg 97%
    02:00 +19°C° 0.6 mm 2 m/s 750 mmHg 97%
    03:00 +19°C° 0 mm 2 m/s 751 mmHg 96%
    04:00 +20°C° 0 mm 2 m/s 751 mmHg 95%
    05:00 +20°C° 0 mm 2 m/s 751 mmHg 94%
    06:00 +23°C° 0.3 mm 2 m/s 751 mmHg 90%
    07:00 +24°C° 0.3 mm 2 m/s 751 mmHg 86%
    08:00 +25°C° 0.3 mm 3 m/s 751 mmHg 82%
    09:00 +26°C° 1 mm 3 m/s 751 mmHg 77%
    10:00 +27°C° 1 mm 3 m/s 751 mmHg 72%
    11:00 +28°C° 1 mm 3 m/s 751 mmHg 67%
    12:00 +28°C° 0.7 mm 3 m/s 751 mmHg 67%
    13:00 +29°C° 0.7 mm 3 m/s 751 mmHg 66%
    14:00 +29°C° 0.7 mm 3 m/s 751 mmHg 66%
    15:00 +28°C° 0.4 mm 2 m/s 751 mmHg 69%
    16:00 +28°C° 0.4 mm 2 m/s 751 mmHg 72%
    17:00 +27°C° 0.4 mm 2 m/s 751 mmHg 75%
    18:00 +26°C° 0.1 mm 2 m/s 751 mmHg 78%
    19:00 +24°C° 0.1 mm 2 m/s 751 mmHg 81%
    20:00 +23°C° 0.1 mm 2 m/s 751 mmHg 84%
    21:00 +21°C° 0 mm 2 m/s 751 mmHg 86%
    22:00 +20°C° 0 mm 2 m/s 751 mmHg 88%
    23:00 +19°C° 0 mm 2 m/s 751 mmHg 89%

    10 Junho, Quarta-feira

    Tempo Temperatura Precipitação Vento Pressão Humidade
    00:00 +19°C° 0 mm 2 m/s 751 mmHg 91%
    01:00 +19°C° 0 mm 2 m/s 751 mmHg 93%
    02:00 +19°C° 0 mm 1 m/s 751 mmHg 94%
    03:00 +19°C° 0 mm 2 m/s 751 mmHg 93%
    04:00 +19°C° 0 mm 2 m/s 751 mmHg 91%
    05:00 +20°C° 0 mm 2 m/s 751 mmHg 89%
    06:00 +21°C° 0 mm 2 m/s 752 mmHg 81%
    07:00 +24°C° 0 mm 2 m/s 752 mmHg 74%
    08:00 +25°C° 0 mm 2 m/s 752 mmHg 67%
    09:00 +26°C° 0 mm 2 m/s 752 mmHg 62%
    10:00 +27°C° 0 mm 2 m/s 751 mmHg 57%
    11:00 +28°C° 0 mm 2 m/s 751 mmHg 52%
    12:00 +29°C° 0 mm 2 m/s 751 mmHg 51%
    13:00 +29°C° 0 mm 2 m/s 751 mmHg 50%
    14:00 +29°C° 0 mm 1 m/s 751 mmHg 49%
    15:00 +29°C° 0 mm 1 m/s 751 mmHg 52%
    16:00 +29°C° 0 mm 1 m/s 751 mmHg 55%
    17:00 +28°C° 0 mm 1 m/s 751 mmHg 58%
    18:00 +26°C° 0 mm 1 m/s 751 mmHg 64%
    19:00 +24°C° 0 mm 1 m/s 750 mmHg 71%
    20:00 +22°C° 0 mm 1 m/s 750 mmHg 77%
    21:00 +22°C° 0 mm 1 m/s 750 mmHg 79%
    22:00 +21°C° 0 mm 1 m/s 750 mmHg 82%
    23:00 +20°C° 0 mm 1 m/s 751 mmHg 85%

    11 Junho, Quinta-feira

    Tempo Temperatura Precipitação Vento Pressão Humidade
    00:00 +19°C° 0 mm 1 m/s 750 mmHg 87%
    01:00 +17°C° 0 mm 0 m/s 750 mmHg 89%
    02:00 +16°C° 0 mm 0 m/s 750 mmHg 91%
    03:00 +17°C° 0 mm 0 m/s 750 mmHg 89%
    04:00 +18°C° 0 mm 0 m/s 750 mmHg 87%
    05:00 +19°C° 0 mm 0 m/s 750 mmHg 85%
    06:00 +21°C° 0 mm 0 m/s 751 mmHg 79%
    07:00 +23°C° 0 mm 0 m/s 751 mmHg 73%
    08:00 +24°C° 0 mm 0 m/s 751 mmHg 67%
    09:00 +25°C° 0.9 mm 0 m/s 751 mmHg 65%
    10:00 +26°C° 0.9 mm 0 m/s 751 mmHg 63%
    11:00 +27°C° 0.9 mm 0 m/s 751 mmHg 61%
    12:00 +27°C° 0.5 mm 0 m/s 750 mmHg 60%
    13:00 +29°C° 0.5 mm 1 m/s 750 mmHg 58%
    14:00 +29°C° 0.5 mm 1 m/s 750 mmHg 57%
    15:00 +28°C° 0.4 mm 1 m/s 750 mmHg 59%
    16:00 +28°C° 0.4 mm 1 m/s 749 mmHg 62%
    17:00 +26°C° 0.4 mm 0 m/s 749 mmHg 65%
    18:00 +24°C° 0.2 mm 0 m/s 749 mmHg 70%
    19:00 +22°C° 0.2 mm 0 m/s 749 mmHg 76%
    20:00 +21°C° 0.2 mm 0 m/s 749 mmHg 82%
    21:00 +22°C° 0.2 mm 1 m/s 749 mmHg 84%
    22:00 +21°C° 0.2 mm 1 m/s 749 mmHg 86%
    23:00 +20°C° 0.2 mm 1 m/s 749 mmHg 89%

    12 Junho, Sexta-feira

    Tempo Temperatura Precipitação Vento Pressão Humidade
    00:00 +20°C° 0 mm 1 m/s 749 mmHg 90%
    01:00 +19°C° 0 mm 1 m/s 749 mmHg 91%
    02:00 +19°C° 0 mm 1 m/s 749 mmHg 92%
    03:00 +20°C° 0 mm 1 m/s 749 mmHg 90%
    04:00 +20°C° 0 mm 1 m/s 749 mmHg 89%
    05:00 +21°C° 0 mm 1 m/s 749 mmHg 87%
    06:00 +23°C° 0.1 mm 1 m/s 749 mmHg 82%
    07:00 +24°C° 0.1 mm 1 m/s 749 mmHg 76%
    08:00 +26°C° 0.1 mm 1 m/s 749 mmHg 71%
    09:00 +27°C° 0.2 mm 1 m/s 749 mmHg 65%
    10:00 +28°C° 0.2 mm 2 m/s 749 mmHg 59%
    11:00 +29°C° 0.2 mm 2 m/s 749 mmHg 53%
    12:00 +29°C° 0.3 mm 2 m/s 749 mmHg 54%
    13:00 +29°C° 0.3 mm 2 m/s 749 mmHg 56%
    14:00 +28°C° 0.3 mm 2 m/s 749 mmHg 57%
    15:00 +27°C° 0.4 mm 3 m/s 749 mmHg 65%
    16:00 +26°C° 0.4 mm 3 m/s 749 mmHg 73%
    17:00 +23°C° 0.4 mm 4 m/s 749 mmHg 81%
    18:00 +22°C° 0.1 mm 4 m/s 750 mmHg 85%
    19:00 +21°C° 0.1 mm 3 m/s 750 mmHg 88%
    20:00 +20°C° 0.1 mm 3 m/s 750 mmHg 92%
    21:00 +19°C° 0 mm 3 m/s 750 mmHg 93%
    22:00 +18°C° 0 mm 4 m/s 751 mmHg 93%
    23:00 +17°C° 0 mm 4 m/s 751 mmHg 93%
    Mostrar mais